This is the latest recevied weather packets stored in our database for station/object SR5NLK-1. If no packets are shown the sender has not sent any weather packets the latest 10 day(s).
| Time | Temp. | Humidity | Pressure | Rain* | Wind** | Luminosity | Snow |
|---|---|---|---|---|---|---|---|
| 1787477109 | 20° C | 59% | 1065.8 hPa | 0 mm | - | - | - |
| 1787476858 | 19.44° C | 60% | 1059.5 hPa | 0 mm | - | - | - |
| 1787476809 | 19.44° C | 60% | 1059.5 hPa | 0 mm | - | - | - |
| 1787476509 | 19.44° C | 60% | 1062.7 hPa | 0 mm | - | - | - |
| 1787476209 | 20° C | 58% | 1081.5 hPa | 0 mm | - | - | - |
| 1787475909 | 20° C | 59% | 1081.5 hPa | 0 mm | - | - | - |
| 1787475641 | 20.56° C | 58% | 1046.9 hPa | 0 mm | - | - | - |
| 1787475609 | 20.56° C | 58% | 1046.9 hPa | 0 mm | - | - | - |
| 1787475308 | 20° C | 59% | 1062.7 hPa | 0 mm | - | - | - |
| 1787475174 | 20° C | 60% | 1065.8 hPa | 0 mm | - | - | - |
| 1787475009 | 20° C | 60% | 1065.8 hPa | 0 mm | - | - | - |
| 1787474962 | 20° C | 60% | 1041.6 hPa | 0 mm | - | - | - |
| 1787474799 | 19.44° C | 60% | 1013.9 hPa | 0 mm | - | - | - |
| 1787474709 | 20° C | 60% | 1041.6 hPa | 0 mm | - | - | - |
| 1787474677 | 19.44° C | 59% | 1043.4 hPa | 0 mm | - | - | - |
| 1787474427 | 20° C | 59% | 1075.2 hPa | 0 mm | - | - | - |
| 1787474409 | 19.44° C | 60% | 1013.9 hPa | 0 mm | - | - | - |
| 1787474109 | 19.44° C | 59% | 1043.4 hPa | 0 mm | - | - | - |
| 1787473809 | 20° C | 59% | 1075.2 hPa | 0 mm | - | - | - |
| 1787473635 | 20.56° C | 58% | 1034.4 hPa | 0 mm | - | - | - |
| 1787473509 | 20.56° C | 58% | 1082.1 hPa | 0 mm | - | - | - |
| 1787473329 | 20.56° C | 57% | 1042.2 hPa | 0 mm | - | - | - |
| 1787473245 | 20.56° C | 60% | 1082.6 hPa | 0 mm | - | - | - |
| 1787473209 | 20.56° C | 58% | 1034.4 hPa | 0 mm | - | - | - |
| 1787472909 | 20.56° C | 60% | 1082.6 hPa | 0 mm | - | - | - |
* Rain latest hour (hover to see other rain measurements)
** Current wind speed in m/s (hover to see current wind gust speed)